When you browse on this site, cookies collect data to enhance your experience and personalize the content and advertising you see.
Visit our Privacy Policy to learn more. By continuing to use the site, you agree to this use of cookies and data.

Hourly Weather Kannyn

Today, 11 July, Saturday

Time Temperature Precipitation Wind Pressure Humidity
00:00 +24°C° 1.5 mm 3 mps 743 mmHg 98%
01:00 +22°C° 1.2 mm 4 mps 743 mmHg 98%
02:00 +22°C° 1.2 mm 5 mps 743 mmHg 98%
03:00 +22°C° 0 mm 6 mps 743 mmHg 98%
04:00 +22°C° 0.8 mm 6 mps 744 mmHg 98%
05:00 +21°C° 0.8 mm 6 mps 744 mmHg 97%
06:00 +21°C° 0.8 mm 6 mps 745 mmHg 96%
07:00 +20°C° 0.6 mm 6 mps 745 mmHg 96%
08:00 +20°C° 0.6 mm 5 mps 746 mmHg 96%
09:00 +20°C° 0 mm 7 mps 746 mmHg 96%
10:00 +20°C° 1 mm 6 mps 746 mmHg 96%
11:00 +20°C° 1 mm 5 mps 747 mmHg 96%
12:00 +20°C° 1 mm 4 mps 747 mmHg 95%
13:00 +21°C° 0.4 mm 4 mps 747 mmHg 93%
14:00 +21°C° 0.4 mm 3 mps 747 mmHg 91%
15:00 +24°C° 0 mm 3 mps 747 mmHg 85%
16:00 +24°C° 0 mm 3 mps 748 mmHg 84%
17:00 +24°C° 0 mm 3 mps 748 mmHg 82%
18:00 +24°C° 0 mm 3 mps 748 mmHg 81%
19:00 +23°C° 0 mm 2 mps 748 mmHg 86%
20:00 +21°C° 0 mm 2 mps 749 mmHg 91%
21:00 +20°C° 0 mm 2 mps 749 mmHg 94%
22:00 +20°C° 0 mm 2 mps 749 mmHg 95%
23:00 +19°C° 0 mm 2 mps 749 mmHg 95%

Tomorrow, 12 July, Sunday

Time Temperature Precipitation Wind Pressure Humidity
00:00 +20°C° 0 mm 1 mps 750 mmHg 95%
01:00 +20°C° 0 mm 1 mps 749 mmHg 95%
02:00 +19°C° 0 mm 1 mps 749 mmHg 94%
03:00 +19°C° 0 mm 1 mps 749 mmHg 93%
04:00 +19°C° 0 mm 1 mps 749 mmHg 92%
05:00 +20°C° 0 mm 1 mps 750 mmHg 92%
06:00 +18°C° 0 mm 0 mps 750 mmHg 91%
07:00 +20°C° 0 mm 0 mps 750 mmHg 83%
08:00 +24°C° 0 mm 1 mps 750 mmHg 76%
09:00 +27°C° 0 mm 1 mps 750 mmHg 68%
10:00 +27°C° 0 mm 1 mps 750 mmHg 66%
11:00 +28°C° 0 mm 2 mps 750 mmHg 64%
12:00 +28°C° 0 mm 2 mps 750 mmHg 62%
13:00 +28°C° 0 mm 2 mps 750 mmHg 66%
14:00 +27°C° 0 mm 2 mps 749 mmHg 71%
15:00 +26°C° 0 mm 2 mps 749 mmHg 75%
16:00 +25°C° 0 mm 2 mps 749 mmHg 80%
17:00 +25°C° 0 mm 2 mps 749 mmHg 85%
18:00 +24°C° 0 mm 2 mps 749 mmHg 89%
19:00 +23°C° 0 mm 2 mps 749 mmHg 92%
20:00 +21°C° 0 mm 2 mps 749 mmHg 95%
21:00 +20°C° 0 mm 2 mps 749 mmHg 97%
22:00 +20°C° 0 mm 2 mps 749 mmHg 97%
23:00 +20°C° 0 mm 2 mps 749 mmHg 97%

Day after tomorrow, 13 July, Monday

Time Temperature Precipitation Wind Pressure Humidity
00:00 +20°C° 0 mm 2 mps 749 mmHg 97%
01:00 +20°C° 0.1 mm 2 mps 749 mmHg 97%
02:00 +20°C° 0.1 mm 2 mps 748 mmHg 97%
03:00 +20°C° 0.1 mm 2 mps 748 mmHg 97%
04:00 +20°C° 0.1 mm 2 mps 748 mmHg 97%
05:00 +20°C° 0.1 mm 2 mps 748 mmHg 97%
06:00 +20°C° 0.1 mm 2 mps 748 mmHg 98%
07:00 +20°C° 0.1 mm 2 mps 748 mmHg 97%
08:00 +20°C° 0.1 mm 3 mps 748 mmHg 96%
09:00 +20°C° 0.1 mm 3 mps 748 mmHg 95%
10:00 +20°C° 0.2 mm 4 mps 748 mmHg 95%
11:00 +20°C° 0.2 mm 4 mps 748 mmHg 95%
12:00 +20°C° 0.2 mm 4 mps 748 mmHg 95%
13:00 +20°C° 0.2 mm 4 mps 747 mmHg 95%
14:00 +20°C° 0.2 mm 4 mps 747 mmHg 95%
15:00 +20°C° 0.2 mm 3 mps 747 mmHg 95%
16:00 +20°C° 0.4 mm 3 mps 747 mmHg 95%
17:00 +19°C° 0.4 mm 3 mps 746 mmHg 96%
18:00 +19°C° 0.4 mm 3 mps 746 mmHg 97%
19:00 +19°C° 0.5 mm 3 mps 746 mmHg 97%
20:00 +19°C° 0.5 mm 3 mps 747 mmHg 98%
21:00 +19°C° 0.5 mm 3 mps 747 mmHg 98%
22:00 +19°C° 0.5 mm 3 mps 747 mmHg 98%
23:00 +19°C° 0.5 mm 3 mps 747 mmHg 98%

14 July, Tuesday

Time Temperature Precipitation Wind Pressure Humidity
00:00 +19°C° 0.5 mm 2 mps 747 mmHg 98%
01:00 +19°C° 0.9 mm 2 mps 746 mmHg 98%
02:00 +19°C° 0.9 mm 2 mps 746 mmHg 98%
03:00 +18°C° 0.9 mm 2 mps 746 mmHg 98%
04:00 +18°C° 0.2 mm 2 mps 746 mmHg 98%
05:00 +18°C° 0.2 mm 2 mps 746 mmHg 97%
06:00 +18°C° 0.2 mm 2 mps 746 mmHg 97%
07:00 +19°C° 0.1 mm 2 mps 746 mmHg 96%
08:00 +19°C° 0.1 mm 3 mps 746 mmHg 95%
09:00 +19°C° 0.1 mm 3 mps 746 mmHg 94%
10:00 +20°C° 0.1 mm 3 mps 746 mmHg 90%
11:00 +21°C° 0.1 mm 3 mps 746 mmHg 86%
12:00 +22°C° 0.1 mm 3 mps 746 mmHg 81%
13:00 +22°C° 0 mm 3 mps 746 mmHg 77%
14:00 +24°C° 0 mm 3 mps 746 mmHg 73%
15:00 +25°C° 0 mm 3 mps 746 mmHg 69%
16:00 +24°C° 0 mm 3 mps 745 mmHg 73%
17:00 +23°C° 0 mm 2 mps 745 mmHg 77%
18:00 +23°C° 0 mm 2 mps 745 mmHg 80%
19:00 +20°C° 0 mm 2 mps 745 mmHg 85%
20:00 +20°C° 0 mm 1 mps 746 mmHg 90%
21:00 +19°C° 0 mm 1 mps 746 mmHg 95%
22:00 +19°C° 0 mm 1 mps 746 mmHg 94%
23:00 +18°C° 0 mm 1 mps 746 mmHg 94%

15 July, Wednesday

Time Temperature Precipitation Wind Pressure Humidity
00:00 +18°C° 0 mm 1 mps 746 mmHg 94%
01:00 +18°C° 0 mm 1 mps 746 mmHg 93%
02:00 +18°C° 0 mm 1 mps 746 mmHg 93%
03:00 +18°C° 0 mm 1 mps 745 mmHg 93%
04:00 +18°C° 0 mm 1 mps 746 mmHg 93%
05:00 +18°C° 0 mm 1 mps 746 mmHg 93%
06:00 +18°C° 0 mm 1 mps 746 mmHg 92%
07:00 +21°C° 0 mm 1 mps 746 mmHg 82%
08:00 +23°C° 0 mm 1 mps 746 mmHg 72%
09:00 +25°C° 0 mm 1 mps 746 mmHg 62%
10:00 +26°C° 0 mm 1 mps 746 mmHg 57%
11:00 +27°C° 0 mm 2 mps 746 mmHg 52%
12:00 +29°C° 0 mm 2 mps 746 mmHg 47%
13:00 +29°C° 0 mm 3 mps 745 mmHg 47%
14:00 +29°C° 0 mm 3 mps 745 mmHg 48%
15:00 +29°C° 0 mm 3 mps 745 mmHg 48%
16:00 +28°C° 0 mm 3 mps 745 mmHg 54%
17:00 +27°C° 0 mm 2 mps 745 mmHg 61%
18:00 +26°C° 0 mm 2 mps 745 mmHg 67%
19:00 +23°C° 0 mm 2 mps 745 mmHg 75%
20:00 +20°C° 0 mm 2 mps 745 mmHg 82%
21:00 +18°C° 0 mm 2 mps 745 mmHg 89%
22:00 +18°C° 0 mm 2 mps 746 mmHg 85%
23:00 +18°C° 0 mm 2 mps 746 mmHg 82%

16 July, Thursday

Time Temperature Precipitation Wind Pressure Humidity
00:00 +18°C° 0 mm 2 mps 746 mmHg 78%
01:00 +19°C° 0 mm 1 mps 746 mmHg 76%
02:00 +18°C° 0 mm 1 mps 746 mmHg 74%
03:00 +18°C° 0 mm 1 mps 746 mmHg 72%
04:00 +19°C° 0 mm 1 mps 746 mmHg 72%
05:00 +19°C° 0 mm 1 mps 746 mmHg 73%
06:00 +19°C° 0 mm 1 mps 746 mmHg 73%
07:00 +22°C° 0 mm 1 mps 746 mmHg 65%
08:00 +25°C° 0 mm 1 mps 747 mmHg 57%
09:00 +27°C° 0 mm 1 mps 747 mmHg 48%
10:00 +28°C° 0 mm 2 mps 747 mmHg 47%
11:00 +29°C° 0 mm 2 mps 747 mmHg 45%
12:00 +30°C° 0 mm 3 mps 747 mmHg 44%
13:00 +30°C° 0 mm 3 mps 746 mmHg 46%
14:00 +30°C° 0 mm 3 mps 746 mmHg 48%
15:00 +30°C° 0 mm 3 mps 746 mmHg 50%
16:00 +29°C° 0 mm 3 mps 746 mmHg 57%
17:00 +28°C° 0 mm 3 mps 746 mmHg 63%
18:00 +26°C° 0 mm 3 mps 746 mmHg 70%
19:00 +25°C° 0 mm 2 mps 746 mmHg 77%
20:00 +23°C° 0 mm 2 mps 747 mmHg 84%
21:00 +20°C° 0 mm 2 mps 747 mmHg 92%
22:00 +20°C° 0 mm 2 mps 747 mmHg 90%
23:00 +19°C° 0 mm 2 mps 747 mmHg 88%
Show more